Location: *
(44.3526°S, 44.9014°W)
Time: 23:53:32
(UTC+00:00)

Cosmos 1553 Rocket - Pass Details

Date: 13 May 2025
Orbit: 940 x 1008 km, 82.9° (Epoch: 14 June)

Event Time Altitude Azimuth Distance (km) Brightness Sun altitude
Rises 20:54:35 0° 187° (S) 3,706 7.0 -12.6°
Reaches altitude 10° 20:57:07 10° 184° (S) 2,762 6.3 -13.1°
Maximum altitude 21:03:27 70° 100° (E) 1,064 4.0 -14.2°
Drops below altitude 10° 21:09:49 10° 16° (NNE) 2,772 6.3 -15.3°
Sets 21:12:22 0° 13° (NNE) 3,720 7.0 -15.8°
